Flag for Faroe Islands Weather past 2 weeks in Tórshavn, Faroe Islands, Faroe Islands

Now
43 °F

Scattered clouds.


Feels Like: 34 °F
Forecast: 41 / 50 °F
Wind: 18 mph from North

Location: Soervaag / Vagar

Current Time: May 30, 2015 at 7:56:35 AM

Latest Report: May 30, 2015 at 7:20 AM


Visibility: N/A

Pressure: 29.71 "Hg

Humidity: 76%

Dew point: 36 °F

Location of TórshavnLocation

Historic Weather in Tórshavn — Graph

°F

Tórshavn temperature yesterday

Maximum temperature yesterday: 48 °F (at 4:20 PM)
Minimum temperature yesterday: 41 °F (at 12:20 AM)
Average temperature yesterday: 45 °F

Past Weeks' High & Low Weather Summary

 TemperatureHumidityPressure
High50 °F (May 19, 10:51 AM)100% (May 21, 3:50 AM)30.21 "Hg (May 21, 3:50 AM)
Low37 °F (May 18, 12:50 AM)62% (May 19, 1:52 PM)29.42 "Hg (May 15, 7:53 PM)
Average44 °F82%29.67 "Hg
* Reported May 15 6:20 AM — May 30 6:20 AM, Tórshavn, Weather by CustomWeather, © 2015

Note: Actual official high and low records may vary slightly from our data, if they occured in-between our weather recording intervals... More about our weather records

Advertising

Tórshavn weather history for previous 24 hours

 ConditionsComfort  
Time TempWeatherWind HumidityBarometerVisibility
6:20 AM
Sat, May 30
43 °FOvercast.18 mph76%29.68 "HgN/A
5:50 AM43 °FPartly sunny.23 mph76%29.68 "HgN/A
5:20 AM43 °FPartly sunny.25 mph71%29.65 "HgN/A
4:50 AM43 °FPassing clouds.23 mph71%29.65 "HgN/A
4:20 AM43 °FPassing clouds.20 mph66%29.65 "HgN/A
3:50 AM43 °FPassing clouds.17 mph71%29.65 "HgN/A
3:20 AM43 °FOvercast.13 mph71%29.65 "HgN/A
2:50 AM43 °FOvercast.17 mph76%29.65 "HgN/A
2:20 AM45 °FOvercast.22 mph71%29.65 "HgN/A
1:50 AM45 °FPassing clouds.18 mph81%29.65 "HgN/A
1:20 AM45 °FPartly cloudy.10 mph81%29.65 "HgN/A
12:50 AM45 °FPassing clouds.12 mph76%29.65 "HgN/A
12:20 AM45 °FPartly cloudy.13 mph76%29.62 "HgN/A
11:50 PM
Fri, May 29
46 °FPartly sunny.18 mph71%29.62 "HgN/A
11:20 PM46 °FPartly sunny.21 mph76%29.59 "HgN/A
10:50 PM46 °FScattered clouds.22 mph76%29.59 "HgN/A
10:20 PM46 °FPartly sunny.23 mph76%29.59 "HgN/A
9:20 PM46 °FPartly sunny.18 mph76%29.56 "HgN/A
8:50 PM46 °FBroken clouds.21 mph82%29.56 "HgN/A
8:20 PM46 °FSprinkles. Partly sunny.20 mph82%29.56 "HgN/A
7:54 PM46 °FLight rain. Partly sunny.15 mph82%29.53 "HgN/A
7:20 PM46 °FPartly sunny.16 mph82%29.53 "HgN/A
6:51 PM46 °FLight rain. Broken clouds.15 mph82%29.53 "HgN/A
6:20 PM46 °FPartly sunny.17 mph82%29.50 "HgN/A
5:50 PM48 °FBroken clouds.16 mph76%29.50 "HgN/A
5:20 PM48 °FPartly sunny.15 mph76%29.50 "HgN/A
4:50 PM48 °FPartly sunny.17 mph82%29.47 "HgN/A
4:20 PM48 °FPartly sunny.16 mph82%29.47 "HgN/A
3:50 PM46 °FOvercast.16 mph87%29.47 "HgN/A
3:20 PM46 °FOvercast.15 mph87%29.47 "HgN/A
2:50 PM46 °FPartly sunny.16 mph82%29.47 "HgN/A
2:20 PM46 °FOvercast.16 mph87%29.47 "HgN/A
1:50 PM46 °FPartly sunny.17 mph87%29.45 "HgN/A
1:20 PM46 °FPartly sunny.18 mph87%29.45 "HgN/A
12:50 PM46 °FPartly sunny.18 mph87%29.45 "HgN/A
12:20 PM46 °FPartly sunny.17 mph87%29.45 "HgN/A
11:50 AM46 °FPartly sunny.17 mph82%29.45 "HgN/A
11:20 AM45 °FPartly sunny.16 mph87%29.45 "HgN/A
10:50 AM45 °FPartly sunny.16 mph87%29.45 "HgN/A
10:20 AM45 °FPartly sunny.16 mph87%29.45 "HgN/A
9:50 AM43 °FDrizzle. Partly sunny.22 mph93%29.45 "Hg4 mi
9:20 AM43 °FLight rain. Partly sunny.23 mph93%29.45 "Hg4 mi
8:50 AM43 °FLight rain. Partly sunny.21 mph87%29.45 "HgN/A
8:20 AM43 °FLight rain. Partly sunny.24 mph87%29.45 "HgN/A
7:50 AM43 °FLight rain. Partly sunny.24 mph93%29.42 "HgN/A
7:20 AM43 °FLight rain. Partly sunny.22 mph87%29.45 "HgN/A
Weather by CustomWeather, © 2015

See weather overviewHow to use our weather pages